DateTimeUTC,F1_A11,F1_S11,BsB_S11,BsG_S11,BsR_S11,BbsB_S11,BbsG_S11,BbsR_S11,BaB_A11,BaG_A11,BaR_A11,Tu_S11,T_S11,Uu_S11,U_S11,P_S11,T1_A11
2021-11-17T11:00:00Z,00000200,21000000,,,,,,,-000.30,0000.16,0000.13,18.8,25.9,,00.0,0639.4,30.9
2021-11-17T11:01:00Z,00000200,21000000,,,,,,,0000.24,0000.06,-000.17,18.8,25.9,,00.0,0639.4,30.9
2021-11-17T11:02:00Z,00000200,21000000,,,,,,,-000.11,-000.35,0000.01,18.8,25.9,,00.0,0639.4,30.9
2021-11-17T11:03:00Z,00000200,61000000,,,,,,,-000.18,0000.04,-000.34,18.8,25.9,,00.0,0639.4,30.9
2021-11-17T11:04:00Z,00000200,41000000,0000.83,-000.17,0000.38,-000.17,-000.17,-000.16,0000.13,0000.11,0000.32,19.1,25.8,,00.0,0640.3,30.9
2021-11-17T11:05:00Z,00000200,01000000,0000.45,-000.12,0000.39,0000.26,-000.12,-000.15,0000.07,0000.12,-000.06,19.2,25.8,,00.0,0640.3,30.9
2021-11-17T11:06:00Z,00000200,01000000,0000.82,-000.08,0000.20,-000.03,-000.07,0000.13,-000.14,-000.09,0000.33,19.2,25.8,,00.0,0640.3,30.9
2021-11-17T11:07:00Z,00000200,01000000,0000.75,0000.09,-000.11,0000.28,-000.05,0000.05,0000.09,0000.01,0000.11,19.3,25.8,,00.0,0640.3,30.9
2021-11-17T11:08:00Z,00000200,01000000,0000.67,0000.09,0000.00,-000.29,0000.18,0000.04,0000.05,0000.06,0000.09,19.3,25.8,,00.0,0640.2,30.9
2021-11-17T11:09:00Z,00000200,01000000,0000.16,-000.09,0000.06,-000.06,-000.04,-000.10,0000.03,-000.39,-000.54,19.2,25.8,,00.0,0640.2,30.9
2021-11-17T11:10:00Z,00000200,01000000,0000.23,0000.18,0000.02,-000.47,0000.09,0000.12,0000.07,0000.35,0000.20,19.2,25.8,,00.0,0640.2,30.9
2021-11-17T11:11:00Z,00000200,01000000,0001.58,0000.25,0000.11,-000.37,0000.03,0000.08,0000.10,0000.28,-000.12,19.2,25.8,,00.0,0640.2,30.9
2021-11-17T11:12:00Z,00000200,01000000,0000.43,0000.11,-000.00,-000.27,-000.02,0000.15,0000.13,-000.03,0000.45,19.2,25.8,,00.0,0640.2,30.9
2021-11-17T11:13:00Z,00000200,01000000,0000.80,0000.01,-000.14,0000.86,0000.05,-000.04,0000.15,0000.24,-000.19,19.2,25.8,,00.0,0640.2,30.9
2021-11-17T11:14:00Z,00000200,01000000,0000.81,-000.09,-000.05,0000.04,0000.19,-000.10,0000.15,-000.10,0000.07,19.2,25.8,,00.0,0640.2,30.9
2021-11-17T11:15:00Z,00000200,01000000,0001.73,0000.17,0000.25,0000.19,0000.11,-000.14,0000.14,0000.36,0000.36,19.3,25.8,,00.0,0640.2,30.9
2021-11-17T11:16:00Z,00000200,01000000,-000.00,-000.17,0000.13,-000.44,0000.25,-000.04,0000.24,0000.20,-000.04,19.3,25.8,,00.0,0640.2,30.9
2021-11-17T11:17:00Z,00000200,01000000,0000.37,-000.06,0000.32,0000.44,0000.01,-000.06,-000.06,-000.35,-000.21,19.3,25.8,,00.0,0640.2,30.9
2021-11-17T11:18:00Z,00000200,01000000,0001.17,-000.00,-000.05,0000.26,-000.05,0000.06,0000.04,0000.28,0000.14,19.3,25.9,,00.0,0640.2,30.9
2021-11-17T11:19:00Z,00000200,01000000,0000.33,0000.06,0000.05,0000.08,0000.08,-000.32,0000.20,-000.11,0000.47,19.3,25.9,,00.0,0640.2,30.9
2021-11-17T11:20:00Z,00000200,01000000,0000.33,-000.14,0000.25,-000.04,-000.06,-000.20,-000.14,0000.18,0000.01,19.4,25.9,,00.0,0640.2,30.9
2021-11-17T11:21:00Z,00000200,01000000,0000.54,-000.08,0000.32,0000.43,0000.08,0000.11,0000.40,-000.18,-000.19,19.4,25.9,,00.0,0640.2,30.9
2021-11-17T11:22:00Z,00000200,01000000,0000.08,-000.34,0000.18,-000.32,0000.10,0000.29,-000.19,0000.31,0000.07,19.4,25.9,,00.0,0640.3,30.9
2021-11-17T11:23:00Z,00000200,01000000,-000.28,-000.33,0000.59,-000.98,0000.24,0000.24,-000.26,0000.12,-000.03,19.4,25.9,,00.0,0640.2,30.9
2021-11-17T11:24:00Z,00000200,01000000,0000.34,0000.01,0000.16,-000.19,-000.13,0000.01,-000.03,-000.22,-000.07,19.4,25.9,,00.0,0640.2,30.9
2021-11-17T11:25:00Z,00000200,01000000,0000.76,0000.28,0000.03,-000.53,0000.32,0000.08,0000.29,-000.15,0000.07,19.4,25.9,,00.0,0640.2,30.9
2021-11-17T11:26:00Z,00000200,01000000,0000.85,-000.12,-000.17,-000.07,-000.07,-000.41,0000.15,0000.26,-000.27,19.4,25.9,,00.0,0640.2,30.9
2021-11-17T11:27:00Z,00000200,01000000,0000.87,-000.12,0000.31,0000.16,0000.11,0000.28,-000.12,0000.21,0000.47,19.3,25.8,,00.0,0640.2,30.9
2021-11-17T11:28:00Z,00000200,01000000,0001.12,-000.20,0000.30,-000.21,0000.38,0000.23,0000.14,0000.03,0000.19,19.3,25.9,,00.0,0640.3,30.9
2021-11-17T11:29:00Z,00000200,01000000,0000.73,0000.08,0000.00,-000.83,0000.08,-000.21,0000.13,0000.13,-000.08,19.4,25.9,,00.0,0640.2,30.9
2021-11-17T11:30:00Z,00000200,01000000,0000.90,0000.25,0000.14,0000.13,0000.29,0000.25,0000.39,0000.16,-000.12,19.4,25.9,,00.0,0640.2,30.9
2021-11-17T11:31:00Z,00000200,01000000,0000.27,0000.13,0000.43,-000.31,0000.12,0000.09,0000.04,0000.06,0000.32,19.4,25.9,,00.0,0640.2,30.9
2021-11-17T11:32:00Z,00000200,01000000,0000.02,-000.01,0000.08,-000.05,-000.18,0000.28,0000.19,0000.18,-000.12,19.5,25.9,,00.0,0640.3,30.9
2021-11-17T11:33:00Z,00000200,01000000,0000.38,-000.11,0000.04,-000.69,0000.17,-000.01,-000.29,0000.17,-000.02,19.5,25.9,,00.0,0640.3,30.9
2021-11-17T11:34:00Z,00000200,01000000,0000.94,0000.15,0000.14,0000.00,0000.14,-000.33,-000.04,-000.08,0000.34,19.5,25.9,,00.0,0640.3,30.9
2021-11-17T11:35:00Z,00000200,01000000,0000.00,-000.06,0000.27,-000.26,0000.08,-000.27,0000.33,0000.04,-000.15,19.5,25.9,,00.0,0640.2,30.9
2021-11-17T11:36:00Z,00000200,01000000,0000.13,-000.17,-000.04,0000.09,0000.49,0000.16,0000.17,0000.15,0000.29,19.6,26.0,,00.0,0640.2,30.9
2021-11-17T11:37:00Z,00000200,01000000,0000.45,0000.17,0000.35,0000.04,0000.09,-000.08,-000.04,-000.20,-000.26,19.6,26.0,,00.0,0640.2,30.9
2021-11-17T11:38:00Z,00000200,01000000,0000.35,-000.02,0000.48,-000.40,0000.17,-000.01,0000.58,0000.70,0000.51,19.6,26.0,,00.0,0640.1,30.9
2021-11-17T11:39:00Z,00000200,01000000,0000.53,0000.12,0000.11,-000.37,-000.09,-000.38,-000.06,-000.11,0000.11,19.6,26.0,,00.0,0640.1,30.9
2021-11-17T11:40:00Z,00000200,01000000,0000.46,-000.07,0000.17,0000.04,-000.23,-000.00,-000.09,-000.08,0000.04,19.6,26.0,,00.0,0640.1,30.9
2021-11-17T11:41:00Z,00000200,01000000,0000.98,0000.20,-000.10,-000.12,-000.12,-000.10,0000.17,0000.25,0000.23,19.7,26.0,,00.0,0640.1,30.9
2021-11-17T11:42:00Z,00000200,01000000,0000.79,-000.09,-000.03,-000.26,0000.13,0000.01,0000.14,0000.09,0000.03,19.7,26.0,,00.0,0640.1,30.9
2021-11-17T11:43:00Z,00000200,01000000,0000.80,0000.01,-000.01,0000.20,0000.14,0000.12,0000.03,0000.36,0000.12,19.7,26.0,,00.0,0640.1,30.9
2021-11-17T11:44:00Z,00000200,01000000,0001.21,0000.15,-000.06,0000.02,-000.04,-000.05,0000.36,-000.17,-000.02,19.7,26.1,,00.0,0640.1,30.9
2021-11-17T11:45:00Z,00000200,01000000,0000.27,0000.43,0000.00,-000.21,-000.04,-000.06,0000.21,0000.12,0000.00,19.7,26.1,,00.0,0640.1,30.9
2021-11-17T11:46:00Z,00000200,01000000,0000.91,-000.24,0000.42,-000.73,0000.04,0000.23,-000.06,0000.39,0000.22,19.7,26.1,,00.0,0640.1,30.9
2021-11-17T11:47:00Z,00000200,01000000,0000.10,-000.01,0000.23,0000.20,0000.11,-000.04,0000.17,-000.15,0000.01,19.7,26.1,,00.0,0640.1,30.9
2021-11-17T11:48:00Z,00000200,01000000,0000.35,-000.23,-000.04,-000.25,0000.07,0000.06,0000.03,0000.34,0000.31,19.8,26.1,,00.0,0640.1,30.9
2021-11-17T11:49:00Z,00000200,01000000,0000.73,0000.32,-000.23,-000.28,0000.24,0000.15,0000.30,-000.13,0000.32,19.8,26.1,,00.0,0640.1,31.0
2021-11-17T11:50:00Z,00000200,01010000,0000.85,-000.06,0000.15,-000.17,-000.21,0000.04,-000.12,0000.16,-000.21,19.8,26.2,,00.0,0640.1,30.9
2021-11-17T11:51:00Z,00000200,01000000,0000.09,-000.04,0000.26,-000.49,0000.02,0000.14,0000.53,0000.28,0000.36,19.8,26.2,,00.0,0640.1,30.9
2021-11-17T11:52:00Z,00000200,01000000,0000.98,0000.23,0000.32,-000.77,0000.02,0000.23,-000.04,0000.28,0000.09,19.9,26.2,,00.0,0640.1,31.0
2021-11-17T11:53:00Z,00000200,01000000,0000.60,-000.15,0000.52,0000.62,0000.06,0000.10,0000.16,-000.06,0000.05,19.9,26.2,,00.0,0640.1,30.9
2021-11-17T11:54:00Z,00000200,01000000,0000.95,-000.11,0000.28,0000.03,0000.03,0000.12,0000.14,0000.29,-000.12,19.9,26.2,,00.0,0640.1,31.0
2021-11-17T11:55:00Z,00000200,01000000,0000.64,0000.11,0000.15,-000.14,0000.18,-000.17,-000.17,-000.56,-000.05,19.9,26.2,,00.0,0640.1,31.0
2021-11-17T11:56:00Z,00000200,01000000,0000.52,-000.02,0000.23,0000.65,0000.16,-000.18,0000.22,0000.38,-000.10,19.8,26.2,,00.0,0640.1,30.9
2021-11-17T11:57:00Z,00000200,41000000,,,,,,,-000.37,-000.16,0000.30,19.9,26.3,,00.0,0640.2,30.9
2021-11-17T11:58:00Z,00000200,61000000,,,,,,,0000.45,0000.36,0000.09,19.5,26.3,,00.0,0639.2,30.9
2021-11-17T11:59:00Z,00000200,21000000,,,,,,,-000.05,-000.19,0000.13,19.5,26.4,,00.0,0639.2,30.9
